Lid_Strength_Index
-0 0 -0 2 7 6 9 9 7 8 7 6 5 6 7 7 8 11 1 -0 -1 -1 -2 -1 -2 -1 -1 -1 -1 -1 -1 -1 -1 -1 -1 -1 -2 -1 -1 -2 -2 -2 -2 -2 -2 -1 -1 -1 -1
2 1 1 3 7 8 9 7 8 7 6 5 5 5 6 8 4 4 3 -0 -1 -1 -2 -1 -1 -1 -1 -1 -1 -1 -1 -1 -1 -2 -2 -1 -1 -1 -2 -2 -2 -2 -2 -2 -2 -2 -2 -2 -2
1 1 3 5 6 9 9 7 7 6 5 5 6 4 5 6 3 3 0 -0 -1 -1 -2 -2 -1 -1 -2 -1 -1 -1 -1 -1 -1 -1 -2 -2 -2 -2 -2 -2 -2 -2 -2 -2 -2 -2 -2 -2 -2
3 2 3 6 8 7 7 6 6 6 5 5 5 7 4 2 3 1 -0 -1 -1 -1 -1 -1 -1 -1 -2 -2 -1 -1 -2 -2 -2 -2 -2 -2 -2 -2 -2 -2 -3 -3 -2 -2 -2 -2 -1 -1 -2
3 2 6 7 7 7 6 5 5 6 6 5 5 7 6 2 1 0 -0 -0 -0 -1 -1 -2 -1 -1 -1 -1 -1 -2 -2 -2 -2 -2 -2 -2 -2 -2 -2 -3 -3 -2 -2 -2 -2 -2 -2 -1 -2
3 3 7 8 7 6 5 5 5 6 5 5 6 6 5 1 1 1 -0 -0 -1 -1 -1 -2 -1 -2 -2 -2 -2 -2 -2 -2 -2 -2 -3 -3 -2 -2 -3 -3 -2 -2 -2 -2 -2 -2 -2 -2 -2
4 5 7 7 7 7 6 4 5 5 6 5 4 7 5 3 1 0 -0 -1 -1 -1 -1 -1 -1 -2 -2 -2 -2 -2 -2 -2 -2 -2 -2 -3 -3 -3 -3 -2 -2 -2 -2 -2 -2 -2 -2 -2 -2
3 4 7 6 7 7 5 5 4 5 5 3 3 6 6 3 1 0 -0 -0 -0 -1 -1 -1 -1 -1 -2 -2 -2 -2 -2 -2 -2 -2 -3 -3 -3 -3 -2 -3 -2 -2 -2 -2 -2 -2 -2 -2 -2
4 6 7 7 7 6 4 5 4 3 4 4 3 4 3 1 1 1 1 1 0 0 -0 -1 -1 -1 -2 -2 -2 -2 -2 -2 -3 -2 -2 -3 -2 -2 -2 -2 -2 -2 -2 -2 -2 -2 -2 -2 -3
4 6 7 5 5 5 4 4 5 5 5 5 4 3 2 2 2 2 2 2 1 1 0 -1 -1 -1 -1 -1 -2 -2 -2 -2 -2 -2 -2 -2 -2 -2 -2 -2 -1 -1 -2 -1 -2 -2 -3 -2 0
4 5 5 5 5 4 4 4 4 5 6 4 5 4 3 2 2 2 2 1 1 1 0 -1 -1 -2 -1 -1 -2 -2 -2 -2 -2 -2 -2 -3 -2 -2 -2 -2 -2 -2 -2 -1 -1 -1 -0 -0 0
6 5 5 4 4 5 5 4 5 4 4 3 3 3 3 3 3 2 2 1 1 1 0 -0 -1 -1 -2 -1 -1 -2 -2 -2 -2 -2 -2 -3 -2 -2 -2 -1 -1 -1 -1 -1 -1 -0 -0 0 1
5 5 5 5 4 4 4 4 4 4 3 3 2 3 3 3 2 2 1 1 1 1 -0 -1 -1 -1 -1 -2 -2 -3 -2 -2 -2 -3 -3 -2 -1 -1 -1 -1 -1 -1 -1 -0 -0 0 0 1 1
6 5 6 5 4 4 5 4 5 4 3 3 3 3 3 3 2 2 2 2 1 0 0 -0 -1 -1 -1 -1 -2 -2 -2 -2 -2 -2 -1 -1 -1 -1 -0 -0 -0 -0 -0 -0 -0 0 1 1 1
6 6 5 5 5 5 4 6 6 3 3 3 3 3 3 3 2 2 2 2 1 1 0 0 -0 -1 -1 -1 -1 -1 -2 -1 -1 -1 -1 -0 -1 -1 -0 0 -0 -0 -0 -0 0 0 1 2 2
6 6 7 5 4 5 5 7 5 3 3 4 4 3 3 3 2 2 1 1 1 1 1 0 -0 -0 -1 -1 -2 -1 -0 -0 0 0 0 -0 -0 -0 -0 0 0 -0 0 1 1 2 2 2 2
6 8 8 7 4 5 5 7 5 3 4 4 4 4 4 3 3 2 2 1 1 0 1 1 -0 1 0 -1 -0 -1 -1 -0 -0 1 1 -0 0 1 0 1 0 -0 1 1 1 2 2 3 3
8 8 8 8 6 5 6 6 5 4 4 5 4 4 4 4 4 3 2 2 1 1 0 1 1 1 -0 -1 -1 -1 -0 1 1 1 0 -1 -0 -0 -0 1 1 1 2 2 2 2 2 2 4
7 7 8 7 5 6 7 7 6 5 5 5 5 5 5 4 3 2 2 1 2 0 1 1 1 -0 -1 0 1 1 1 1 1 0 -0 -0 -0 -1 -0 0 -0 -0 1 1 2 2 4 3 3
7 8 8 6 6 6 7 7 6 6 6 5 5 5 5 5 4 3 3 2 2 1 1 0 0 1 1 1 1 1 0 1 1 0 -1 -1 -1 -0 -0 -1 -0 0 2 1 2 3 4 3 3
7 8 8 8 6 5 7 7 7 6 5 5 4 4 4 4 5 4 3 2 1 1 1 0 1 0 1 1 0 0 0 -0 0 -0 -0 -0 -0 -0 -1 -1 -0 0 1 3 3 3 3 4 3
8 6 7 7 8 10 7 11 8 7 7 6 6 5 5 4 4 4 3 3 2 1 1 1 1 2 1 0 0 1 1 2 1 0 0 -0 -1 -1 -1 -0 0 1 2 2 2 1 2 2 3
7 6 6 7 8 8 8 10 8 7 8 8 7 6 5 5 4 4 3 3 2 2 3 2 2 3 3 2 1 1 2 0 -0 -0 -0 -0 -1 -1 0 1 0 1 1 1 1 1 1 2 2
5 6 6 6 8 11 9 9 9 8 8 8 7 7 6 5 5 6 6 6 6 4 4 3 4 3 3 3 2 2 1 0 1 1 2 2 1 0 0 0 -0 -0 0 0 0 0 0 1 1
6 7 11 11 11 12 9 10 10 7 7 7 8 7 6 6 7 7 7 6 5 4 4 4 3 2 2 1 1 1 1 1 1 2 2 1 1 1 0 -1 -0 0 -0 -0 -0 0 1 1 2
7 7 11 14 13 11 8 12 11 7 6 6 6 7 7 7 7 7 6 7 5 4 3 3 3 3 2 2 2 2 1 2 2 2 1 1 1 1 -1 -1 -1 -0 -0 -1 -1 1 1 1 1
7 9 7 10 9 12 9 9 8 7 7 7 7 7 8 8 7 6 5 4 4 4 3 3 3 3 3 3 2 2 2 2 2 1 0 1 -0 -0 -0 -0 -0 -1 -0 -1 -1 0 -0 0 0
7 6 10 9 15 15 11 10 12 9 7 7 7 7 7 6 5 4 3 4 4 4 5 4 3 4 4 3 3 2 2 1 1 0 0 -0 -1 -1 -0 -0 -1 -0 -0 -0 -1 -0 0 1 1
7 8 8 9 10 14 14 11 8 8 7 7 7 5 6 5 4 4 4 3 4 4 4 3 4 4 3 3 2 2 1 1 -0 -0 -0 -0 -0 -0 -1 -0 -0 -1 -1 -0 -0 0 1 2 1
7 8 8 12 12 10 11 12 6 6 6 6 6 5 6 4 4 3 5 6 4 4 4 4 3 3 3 2 2 1 0 0 0 0 0 -0 -0 -1 -1 -1 -1 -1 -0 -0 1 1 0 1 1